contact:dominique.lefevre@mio.osupytheas.fr, maurice.libes@osupytheas.fr, didier.mallarino@osupytheas.fr
Project:EMSO http://www.emso-fr.org/EMSO-France
Depth: 2436.0 m
Title:EMSO Ligure Ouest : Data MII capteur MICROCAT
DateTime_Computer,Latitude,Longitude,Temperature,Conductivity,Pressure,DateTime_Instrument
DateTime_Computer,Latitude,Longitude,degC,S m-1,dbar,DateTime_Instrument
2021-04-27T00:00:23Z,42.805,6.029,13.2979,4.59986,2469.563,2021-4-27T02:01:32Z
2021-04-27T00:03:26Z,42.805,6.029,13.2982,4.59986,2469.526,2021-4-27T02:04:36Z
2021-04-27T00:06:29Z,42.805,6.029,13.2984,4.59986,2469.54,2021-4-27T02:07:39Z
2021-04-27T00:09:32Z,42.805,6.029,13.2982,4.59989,2469.517,2021-4-27T02:10:42Z
2021-04-27T00:12:35Z,42.805,6.029,13.2982,4.59986,2469.55,2021-4-27T02:13:45Z
2021-04-27T00:15:38Z,42.805,6.029,13.2981,4.59986,2469.526,2021-4-27T02:16:48Z
2021-04-27T00:18:42Z,42.805,6.029,13.2981,4.59986,2469.563,2021-4-27T02:19:51Z
2021-04-27T00:21:45Z,42.805,6.029,13.2978,4.59985,2469.503,2021-4-27T02:22:54Z
2021-04-27T00:24:48Z,42.805,6.029,13.2984,4.59986,2469.517,2021-4-27T02:25:57Z
2021-04-27T00:27:51Z,42.805,6.029,13.2979,4.59986,2469.55,2021-4-27T02:29:01Z
2021-04-27T00:30:54Z,42.805,6.029,13.2984,4.59988,2469.55,2021-4-27T02:32:04Z
2021-04-27T00:33:57Z,42.805,6.029,13.2983,4.59986,2469.503,2021-4-27T02:35:07Z
2021-04-27T00:37:00Z,42.805,6.029,13.2984,4.59986,2469.526,2021-4-27T02:38:10Z
2021-04-27T00:40:03Z,42.805,6.029,13.2983,4.59988,2469.503,2021-4-27T02:41:13Z
2021-04-27T00:43:07Z,42.805,6.029,13.2983,4.59986,2469.54,2021-4-27T02:44:16Z
2021-04-27T00:46:10Z,42.805,6.029,13.2982,4.59986,2469.526,2021-4-27T02:47:19Z
2021-04-27T00:49:13Z,42.805,6.029,13.2981,4.59985,2469.503,2021-4-27T02:50:22Z
2021-04-27T00:52:16Z,42.805,6.029,13.2981,4.59986,2469.54,2021-4-27T02:53:26Z
2021-04-27T00:55:19Z,42.805,6.029,13.2982,4.59986,2469.503,2021-4-27T02:56:29Z
2021-04-27T00:58:22Z,42.805,6.029,13.2982,4.59986,2469.503,2021-4-27T02:59:32Z
2021-04-27T01:01:25Z,42.805,6.029,13.2983,4.59987,2469.503,2021-4-27T03:02:35Z
2021-04-27T01:04:28Z,42.805,6.029,13.2983,4.59986,2469.503,2021-4-27T03:05:38Z
2021-04-27T01:07:32Z,42.805,6.029,13.2979,4.59986,2469.503,2021-4-27T03:08:41Z
2021-04-27T01:10:35Z,42.805,6.029,13.2983,4.59987,2469.494,2021-4-27T03:11:44Z
2021-04-27T01:13:38Z,42.805,6.029,13.2981,4.59988,2469.503,2021-4-27T03:14:47Z
2021-04-27T01:16:41Z,42.805,6.029,13.2979,4.59987,2469.494,2021-4-27T03:17:51Z
2021-04-27T01:19:44Z,42.805,6.029,13.2982,4.59987,2469.503,2021-4-27T03:20:54Z
2021-04-27T01:22:47Z,42.805,6.029,13.2979,4.59987,2469.54,2021-4-27T03:23:57Z
2021-04-27T01:25:50Z,42.805,6.029,13.2983,4.59987,2469.54,2021-4-27T03:27:00Z
2021-04-27T01:28:53Z,42.805,6.029,13.2979,4.59984,2469.503,2021-4-27T03:30:03Z
2021-04-27T01:31:57Z,42.805,6.029,13.2983,4.59984,2469.48,2021-4-27T03:33:06Z
2021-04-27T01:35:00Z,42.805,6.029,13.2982,4.59985,2469.503,2021-4-27T03:36:09Z
2021-04-27T01:38:03Z,42.805,6.029,13.2980,4.59985,2469.503,2021-4-27T03:39:12Z
2021-04-27T01:41:06Z,42.805,6.029,13.2979,4.59985,2469.494,2021-4-27T03:42:15Z
2021-04-27T01:44:09Z,42.805,6.029,13.2979,4.59985,2469.517,2021-4-27T03:45:19Z
2021-04-27T01:47:12Z,42.805,6.029,13.2983,4.59986,2469.517,2021-4-27T03:48:22Z
2021-04-27T01:50:15Z,42.805,6.029,13.2981,4.59987,2469.517,2021-4-27T03:51:25Z
2021-04-27T01:53:18Z,42.805,6.029,13.2981,4.59987,2469.503,2021-4-27T03:54:28Z
2021-04-27T01:56:22Z,42.805,6.029,13.2979,4.59986,2469.54,2021-4-27T03:57:31Z
2021-04-27T01:59:25Z,42.805,6.029,13.2980,4.59986,2469.526,2021-4-27T04:00:34Z
2021-04-27T02:02:28Z,42.805,6.029,13.2982,4.59986,2469.494,2021-4-27T04:03:37Z
2021-04-27T02:05:31Z,42.805,6.029,13.2981,4.59985,2469.526,2021-4-27T04:06:40Z
2021-04-27T02:08:34Z,42.805,6.029,13.2978,4.59987,2469.517,2021-4-27T04:09:44Z
2021-04-27T02:11:37Z,42.805,6.029,13.2982,4.59986,2469.503,2021-4-27T04:12:47Z
2021-04-27T02:14:40Z,42.805,6.029,13.2981,4.59986,2469.526,2021-4-27T04:15:50Z
2021-04-27T02:17:43Z,42.805,6.029,13.2981,4.59986,2469.517,2021-4-27T04:18:53Z
2021-04-27T02:20:47Z,42.805,6.029,13.2984,4.59986,2469.503,2021-4-27T04:21:56Z
2021-04-27T02:23:50Z,42.805,6.029,13.2982,4.59986,2469.526,2021-4-27T04:24:59Z
2021-04-27T02:26:53Z,42.805,6.029,13.2983,4.59985,2469.503,2021-4-27T04:28:02Z
2021-04-27T02:29:56Z,42.805,6.029,13.2978,4.59985,2469.503,2021-4-27T04:31:05Z
2021-04-27T02:32:59Z,42.805,6.029,13.2979,4.59987,2469.526,2021-4-27T04:34:09Z
2021-04-27T02:36:02Z,42.805,6.029,13.2982,4.59986,2469.55,2021-4-27T04:37:12Z
2021-04-27T02:39:05Z,42.805,6.029,13.2980,4.59986,2469.517,2021-4-27T04:40:15Z
2021-04-27T02:42:08Z,42.805,6.029,13.2982,4.59986,2469.54,2021-4-27T04:43:18Z
2021-04-27T02:45:11Z,42.805,6.029,13.2983,4.59985,2469.526,2021-4-27T04:46:21Z
2021-04-27T02:48:15Z,42.805,6.029,13.2982,4.59986,2469.526,2021-4-27T04:49:24Z
2021-04-27T02:51:18Z,42.805,6.029,13.2979,4.59986,2469.494,2021-4-27T04:52:27Z
2021-04-27T02:54:21Z,42.805,6.029,13.2982,4.59986,2469.503,2021-4-27T04:55:30Z
2021-04-27T02:57:24Z,42.805,6.029,13.2979,4.59986,2469.503,2021-4-27T04:58:34Z
2021-04-27T03:00:27Z,42.805,6.029,13.2979,4.59988,2469.526,2021-4-27T05:01:37Z
2021-04-27T03:03:30Z,42.805,6.029,13.2979,4.59986,2469.494,2021-4-27T05:04:40Z
2021-04-27T03:06:33Z,42.805,6.029,13.2979,4.59986,2469.503,2021-4-27T05:07:43Z
2021-04-27T03:09:36Z,42.805,6.029,13.2984,4.59986,2469.55,2021-4-27T05:10:46Z
2021-04-27T03:12:40Z,42.805,6.029,13.2981,4.59985,2469.526,2021-4-27T05:13:49Z
2021-04-27T03:15:43Z,42.805,6.029,13.2982,4.59987,2469.54,2021-4-27T05:16:52Z
2021-04-27T03:18:46Z,42.805,6.029,13.2980,4.59986,2469.587,2021-4-27T05:19:55Z
2021-04-27T03:21:49Z,42.805,6.029,13.2979,4.59986,2469.563,2021-4-27T05:22:59Z
2021-04-27T03:24:52Z,42.805,6.029,13.2982,4.59987,2469.573,2021-4-27T05:26:02Z
2021-04-27T03:27:55Z,42.805,6.029,13.2982,4.59986,2469.54,2021-4-27T05:29:05Z
2021-04-27T03:30:58Z,42.805,6.029,13.2981,4.59985,2469.526,2021-4-27T05:32:08Z
2021-04-27T03:34:01Z,42.805,6.029,13.2978,4.59986,2469.573,2021-4-27T05:35:11Z
2021-04-27T03:37:05Z,42.805,6.029,13.2979,4.59986,2469.526,2021-4-27T05:38:14Z
2021-04-27T03:40:08Z,42.805,6.029,13.2981,4.59987,2469.563,2021-4-27T05:41:17Z
2021-04-27T03:43:11Z,42.805,6.029,13.2982,4.59986,2469.55,2021-4-27T05:44:20Z
2021-04-27T03:46:14Z,42.805,6.029,13.2977,4.59987,2469.55,2021-4-27T05:47:23Z
2021-04-27T03:49:17Z,42.805,6.029,13.2979,4.59988,2469.55,2021-4-27T05:50:27Z
2021-04-27T03:52:20Z,42.805,6.029,13.2982,4.59988,2469.526,2021-4-27T05:53:30Z
2021-04-27T03:55:23Z,42.805,6.029,13.2983,4.59986,2469.573,2021-4-27T05:56:33Z
2021-04-27T03:58:26Z,42.805,6.029,13.2982,4.59986,2469.587,2021-4-27T05:59:36Z
2021-04-27T04:01:30Z,42.805,6.029,13.2982,4.59986,2469.573,2021-4-27T06:02:39Z
2021-04-27T04:04:33Z,42.805,6.029,13.2982,4.59987,2469.587,2021-4-27T06:05:42Z
2021-04-27T04:07:36Z,42.805,6.029,13.2983,4.59985,2469.597,2021-4-27T06:08:45Z
2021-04-27T04:10:39Z,42.805,6.029,13.2982,4.59986,2469.597,2021-4-27T06:11:48Z
2021-04-27T04:13:42Z,42.805,6.029,13.2981,4.59986,2469.62,2021-4-27T06:14:52Z
2021-04-27T04:16:45Z,42.805,6.029,13.2981,4.59987,2469.61,2021-4-27T06:17:55Z
2021-04-27T04:19:48Z,42.805,6.029,13.2984,4.59986,2469.61,2021-4-27T06:20:58Z
2021-04-27T04:22:51Z,42.805,6.029,13.2979,4.59986,2469.62,2021-4-27T06:24:01Z
2021-04-27T04:25:55Z,42.805,6.029,13.2979,4.59986,2469.573,2021-4-27T06:27:04Z
2021-04-27T04:28:58Z,42.805,6.029,13.2981,4.59986,2469.597,2021-4-27T06:30:07Z
2021-04-27T04:32:01Z,42.805,6.029,13.2985,4.59986,2469.597,2021-4-27T06:33:10Z
2021-04-27T04:35:04Z,42.805,6.029,13.2981,4.59988,2469.61,2021-4-27T06:36:13Z
2021-04-27T04:38:07Z,42.805,6.029,13.2980,4.59987,2469.634,2021-4-27T06:39:17Z
2021-04-27T04:41:10Z,42.805,6.029,13.2982,4.59987,2469.643,2021-4-27T06:42:20Z
2021-04-27T04:44:13Z,42.805,6.029,13.2979,4.59986,2469.597,2021-4-27T06:45:23Z
2021-04-27T04:47:16Z,42.805,6.029,13.2982,4.59986,2469.643,2021-4-27T06:48:26Z
2021-04-27T04:50:19Z,42.805,6.029,13.2981,4.59988,2469.634,2021-4-27T06:51:29Z
2021-04-27T04:53:23Z,42.805,6.029,13.2976,4.59987,2469.634,2021-4-27T06:54:32Z
2021-04-27T04:56:26Z,42.805,6.029,13.2979,4.59987,2469.634,2021-4-27T06:57:35Z
2021-04-27T04:59:29Z,42.805,6.029,13.2979,4.59986,2469.62,2021-4-27T07:00:38Z
2021-04-27T05:02:32Z,42.805,6.029,13.2981,4.59988,2469.62,2021-4-27T07:03:42Z
2021-04-27T05:05:35Z,42.805,6.029,13.2982,4.59986,2469.634,2021-4-27T07:06:45Z
2021-04-27T05:08:38Z,42.805,6.029,13.2982,4.59986,2469.667,2021-4-27T07:09:48Z
2021-04-27T05:11:41Z,42.805,6.029,13.2984,4.59986,2469.62,2021-4-27T07:12:51Z
2021-04-27T05:14:44Z,42.805,6.029,13.2982,4.59986,2469.643,2021-4-27T07:15:54Z
2021-04-27T05:17:48Z,42.805,6.029,13.2979,4.59986,2469.68,2021-4-27T07:18:57Z
2021-04-27T05:20:51Z,42.805,6.029,13.2978,4.59986,2469.657,2021-4-27T07:22:00Z
2021-04-27T05:23:54Z,42.805,6.029,13.2982,4.59986,2469.667,2021-4-27T07:25:03Z
2021-04-27T05:26:57Z,42.805,6.029,13.2980,4.59986,2469.643,2021-4-27T07:28:07Z
2021-04-27T05:30:00Z,42.805,6.029,13.2979,4.59987,2469.657,2021-4-27T07:31:10Z
2021-04-27T05:33:03Z,42.805,6.029,13.2979,4.59987,2469.667,2021-4-27T07:34:13Z
2021-04-27T05:36:06Z,42.805,6.029,13.2983,4.59989,2469.643,2021-4-27T07:37:16Z
2021-04-27T05:39:09Z,42.805,6.029,13.2982,4.59986,2469.643,2021-4-27T07:40:19Z
2021-04-27T05:42:13Z,42.805,6.029,13.2983,4.59987,2469.68,2021-4-27T07:43:22Z
2021-04-27T05:45:16Z,42.805,6.029,13.2979,4.59988,2469.667,2021-4-27T07:46:25Z
2021-04-27T05:48:19Z,42.805,6.029,13.2984,4.59986,2469.68,2021-4-27T07:49:28Z
2021-04-27T05:51:22Z,42.805,6.029,13.2982,4.59986,2469.667,2021-4-27T07:52:32Z
2021-04-27T05:54:25Z,42.805,6.029,13.2983,4.59986,2469.68,2021-4-27T07:55:35Z
2021-04-27T05:57:28Z,42.805,6.029,13.2982,4.59987,2469.69,2021-4-27T07:58:38Z
2021-04-27T06:00:31Z,42.805,6.029,13.2981,4.59986,2469.657,2021-4-27T08:01:41Z
2021-04-27T06:03:34Z,42.805,6.029,13.2980,4.59986,2469.68,2021-4-27T08:04:44Z
2021-04-27T06:06:38Z,42.805,6.029,13.2976,4.59986,2469.704,2021-4-27T08:07:47Z
2021-04-27T06:09:41Z,42.805,6.029,13.2983,4.59988,2469.667,2021-4-27T08:10:50Z
2021-04-27T06:12:44Z,42.805,6.029,13.2982,4.59989,2469.68,2021-4-27T08:13:53Z
2021-04-27T06:15:47Z,42.805,6.029,13.2979,4.59986,2469.643,2021-4-27T08:16:56Z
2021-04-27T06:18:50Z,42.805,6.029,13.2979,4.59986,2469.667,2021-4-27T08:20:00Z
2021-04-27T06:21:53Z,42.805,6.029,13.2980,4.59986,2469.667,2021-4-27T08:23:03Z
2021-04-27T06:24:56Z,42.805,6.029,13.2979,4.59986,2469.69,2021-4-27T08:26:06Z
2021-04-27T06:27:59Z,42.805,6.029,13.2983,4.59988,2469.667,2021-4-27T08:29:09Z
2021-04-27T06:31:03Z,42.805,6.029,13.2982,4.59987,2469.68,2021-4-27T08:32:12Z
2021-04-27T06:34:06Z,42.805,6.029,13.2978,4.59986,2469.713,2021-4-27T08:35:15Z
2021-04-27T06:37:09Z,42.805,6.029,13.2985,4.59987,2469.643,2021-4-27T08:38:18Z
2021-04-27T06:40:12Z,42.805,6.029,13.2986,4.59987,2469.713,2021-4-27T08:41:21Z
2021-04-27T06:43:15Z,42.805,6.029,13.2980,4.59986,2469.667,2021-4-27T08:44:25Z
2021-04-27T06:46:18Z,42.805,6.029,13.2979,4.59987,2469.667,2021-4-27T08:47:28Z
2021-04-27T06:49:21Z,42.805,6.029,13.2978,4.59986,2469.657,2021-4-27T08:50:31Z
2021-04-27T06:52:24Z,42.805,6.029,13.2981,4.59987,2469.667,2021-4-27T08:53:34Z
2021-04-27T06:55:28Z,42.805,6.029,13.2983,4.59987,2469.713,2021-4-27T08:56:37Z
2021-04-27T06:58:31Z,42.805,6.029,13.2982,4.59988,2469.704,2021-4-27T08:59:40Z
2021-04-27T07:01:34Z,42.805,6.029,13.2980,4.59988,2469.69,2021-4-27T09:02:43Z
2021-04-27T07:04:37Z,42.805,6.029,13.2979,4.59986,2469.68,2021-4-27T09:05:46Z
2021-04-27T07:07:40Z,42.805,6.029,13.2977,4.59986,2469.643,2021-4-27T09:08:50Z
2021-04-27T07:10:43Z,42.805,6.029,13.2980,4.59987,2469.667,2021-4-27T09:11:53Z
2021-04-27T07:13:46Z,42.805,6.029,13.2982,4.59986,2469.69,2021-4-27T09:14:56Z
2021-04-27T07:16:49Z,42.805,6.029,13.2979,4.59986,2469.69,2021-4-27T09:17:59Z
2021-04-27T07:19:52Z,42.805,6.029,13.2983,4.59987,2469.704,2021-4-27T09:21:02Z
2021-04-27T07:22:56Z,42.805,6.029,13.2983,4.59987,2469.69,2021-4-27T09:24:05Z
2021-04-27T07:25:59Z,42.805,6.029,13.2981,4.59986,2469.69,2021-4-27T09:27:08Z
2021-04-27T07:29:02Z,42.805,6.029,13.2983,4.59988,2469.69,2021-4-27T09:30:11Z
2021-04-27T07:32:05Z,42.805,6.029,13.2982,4.59987,2469.704,2021-4-27T09:33:15Z
2021-04-27T07:35:08Z,42.805,6.029,13.2979,4.59987,2469.667,2021-4-27T09:36:18Z
2021-04-27T07:38:11Z,42.805,6.029,13.2984,4.59986,2469.69,2021-4-27T09:39:21Z
2021-04-27T07:41:14Z,42.805,6.029,13.2981,4.59987,2469.667,2021-4-27T09:42:24Z
2021-04-27T07:44:17Z,42.805,6.029,13.2984,4.59987,2469.667,2021-4-27T09:45:27Z
2021-04-27T07:47:21Z,42.805,6.029,13.2984,4.59987,2469.657,2021-4-27T09:48:30Z
2021-04-27T07:50:24Z,42.805,6.029,13.2979,4.59986,2469.667,2021-4-27T09:51:33Z
2021-04-27T07:53:27Z,42.805,6.029,13.2979,4.59987,2469.69,2021-4-27T09:54:36Z
2021-04-27T07:56:30Z,42.805,6.029,13.2981,4.59986,2469.69,2021-4-27T09:57:40Z
2021-04-27T07:59:33Z,42.805,6.029,13.2981,4.59986,2469.69,2021-4-27T10:00:43Z
2021-04-27T08:02:36Z,42.805,6.029,13.2981,4.59986,2469.653,2021-4-27T10:03:46Z
2021-04-27T08:05:39Z,42.805,6.029,13.2982,4.59987,2469.69,2021-4-27T10:06:49Z
2021-04-27T08:08:42Z,42.805,6.029,13.2982,4.59987,2469.69,2021-4-27T10:09:52Z
2021-04-27T08:11:46Z,42.805,6.029,13.2984,4.59988,2469.69,2021-4-27T10:12:55Z
2021-04-27T08:14:49Z,42.805,6.029,13.2978,4.59987,2469.667,2021-4-27T10:15:58Z
2021-04-27T08:17:52Z,42.805,6.029,13.2979,4.59986,2469.68,2021-4-27T10:19:01Z
2021-04-27T08:20:55Z,42.805,6.029,13.2982,4.59987,2469.69,2021-4-27T10:22:05Z
2021-04-27T08:23:58Z,42.805,6.029,13.2980,4.59986,2469.667,2021-4-27T10:25:08Z
2021-04-27T08:27:01Z,42.805,6.029,13.2983,4.59986,2469.667,2021-4-27T10:28:11Z
2021-04-27T08:30:04Z,42.805,6.029,13.2978,4.59986,2469.643,2021-4-27T10:31:14Z
2021-04-27T08:33:07Z,42.805,6.029,13.2979,4.59986,2469.69,2021-4-27T10:34:17Z
2021-04-27T08:36:11Z,42.805,6.029,13.2979,4.59986,2469.704,2021-4-27T10:37:20Z
2021-04-27T08:39:14Z,42.805,6.029,13.2979,4.59986,2469.643,2021-4-27T10:40:23Z
2021-04-27T08:42:17Z,42.805,6.029,13.2981,4.59987,2469.657,2021-4-27T10:43:26Z
2021-04-27T08:45:20Z,42.805,6.029,13.2984,4.59988,2469.643,2021-4-27T10:46:30Z
2021-04-27T08:48:23Z,42.805,6.029,13.2980,4.59986,2469.68,2021-4-27T10:49:33Z
2021-04-27T08:51:26Z,42.805,6.029,13.2983,4.59987,2469.667,2021-4-27T10:52:36Z
2021-04-27T08:54:29Z,42.805,6.029,13.2980,4.59987,2469.667,2021-4-27T10:55:39Z
2021-04-27T08:57:32Z,42.805,6.029,13.2981,4.59987,2469.657,2021-4-27T10:58:42Z
2021-04-27T09:00:36Z,42.805,6.029,13.2982,4.59986,2469.634,2021-4-27T11:01:45Z
2021-04-27T09:03:39Z,42.805,6.029,13.2979,4.59985,2469.69,2021-4-27T11:04:48Z
2021-04-27T09:06:42Z,42.805,6.029,13.2979,4.59986,2469.667,2021-4-27T11:07:51Z
2021-04-27T09:09:45Z,42.805,6.029,13.2984,4.59986,2469.643,2021-4-27T11:10:55Z
2021-04-27T09:12:48Z,42.805,6.029,13.2980,4.59986,2469.68,2021-4-27T11:13:58Z
2021-04-27T09:15:51Z,42.805,6.029,13.2979,4.59987,2469.643,2021-4-27T11:17:01Z
2021-04-27T09:18:54Z,42.805,6.029,13.2983,4.59986,2469.643,2021-4-27T11:20:04Z
2021-04-27T09:21:58Z,42.805,6.029,13.2983,4.59987,2469.62,2021-4-27T11:23:07Z
2021-04-27T09:25:01Z,42.805,6.029,13.2982,4.59986,2469.657,2021-4-27T11:26:10Z
2021-04-27T09:28:04Z,42.805,6.029,13.2982,4.59986,2469.643,2021-4-27T11:29:13Z
2021-04-27T09:31:07Z,42.805,6.029,13.2982,4.59987,2469.643,2021-4-27T11:32:16Z
2021-04-27T09:34:10Z,42.805,6.029,13.2981,4.59986,2469.643,2021-4-27T11:35:20Z
2021-04-27T09:37:13Z,42.805,6.029,13.2982,4.59987,2469.657,2021-4-27T11:38:23Z
2021-04-27T09:40:16Z,42.805,6.029,13.2981,4.59986,2469.643,2021-4-27T11:41:26Z
2021-04-27T09:43:19Z,42.805,6.029,13.2977,4.59986,2469.573,2021-4-27T11:44:29Z
2021-04-27T09:46:23Z,42.805,6.029,13.2980,4.59986,2469.634,2021-4-27T11:47:32Z
2021-04-27T09:49:26Z,42.805,6.029,13.2982,4.59986,2469.643,2021-4-27T11:50:35Z
2021-04-27T09:52:29Z,42.805,6.029,13.2978,4.59989,2469.657,2021-4-27T11:53:38Z
2021-04-27T09:55:32Z,42.805,6.029,13.2982,4.59986,2469.597,2021-4-27T11:56:41Z
2021-04-27T09:58:35Z,42.805,6.029,13.2985,4.59986,2469.634,2021-4-27T11:59:45Z
2021-04-27T10:01:38Z,42.805,6.029,13.2976,4.59986,2469.597,2021-4-27T12:02:48Z
2021-04-27T10:04:41Z,42.805,6.029,13.2979,4.59986,2469.61,2021-4-27T12:05:51Z
2021-04-27T10:07:44Z,42.805,6.029,13.2982,4.59985,2469.61,2021-4-27T12:08:54Z
2021-04-27T10:10:48Z,42.805,6.029,13.2983,4.59988,2469.61,2021-4-27T12:11:57Z
2021-04-27T10:13:51Z,42.805,6.029,13.2982,4.59986,2469.587,2021-4-27T12:15:00Z
2021-04-27T10:16:54Z,42.805,6.029,13.2983,4.59987,2469.573,2021-4-27T12:18:03Z
2021-04-27T10:19:57Z,42.805,6.029,13.2980,4.59986,2469.573,2021-4-27T12:21:06Z
2021-04-27T10:23:00Z,42.805,6.029,13.2979,4.59986,2469.55,2021-4-27T12:24:10Z
2021-04-27T10:26:03Z,42.805,6.029,13.2980,4.59986,2469.597,2021-4-27T12:27:13Z
2021-04-27T10:29:06Z,42.805,6.029,13.2979,4.59986,2469.587,2021-4-27T12:30:16Z
2021-04-27T10:32:09Z,42.805,6.029,13.2985,4.59987,2469.587,2021-4-27T12:33:19Z
2021-04-27T10:35:13Z,42.805,6.029,13.2982,4.59986,2469.573,2021-4-27T12:36:22Z
2021-04-27T10:38:16Z,42.805,6.029,13.2982,4.59986,2469.61,2021-4-27T12:39:25Z
2021-04-27T10:41:19Z,42.805,6.029,13.2982,4.59988,2469.55,2021-4-27T12:42:28Z
2021-04-27T10:44:22Z,42.805,6.029,13.2983,4.59987,2469.573,2021-4-27T12:45:31Z
2021-04-27T10:47:25Z,42.805,6.029,13.2981,4.59988,2469.563,2021-4-27T12:48:35Z
2021-04-27T10:50:28Z,42.805,6.029,13.2982,4.59986,2469.563,2021-4-27T12:51:38Z
2021-04-27T10:53:31Z,42.805,6.029,13.2982,4.59986,2469.573,2021-4-27T12:54:41Z
2021-04-27T10:56:34Z,42.805,6.029,13.2980,4.59986,2469.55,2021-4-27T12:57:44Z
2021-04-27T10:59:38Z,42.805,6.029,13.2979,4.59986,2469.563,2021-4-27T13:00:47Z
2021-04-27T11:02:41Z,42.805,6.029,13.2980,4.59986,2469.563,2021-4-27T13:03:50Z
2021-04-27T11:05:44Z,42.805,6.029,13.2982,4.59987,2469.526,2021-4-27T13:06:53Z
2021-04-27T11:08:47Z,42.805,6.029,13.2981,4.59986,2469.55,2021-4-27T13:09:57Z
2021-04-27T11:11:50Z,42.805,6.029,13.2979,4.59986,2469.526,2021-4-27T13:13:00Z
2021-04-27T11:14:53Z,42.805,6.029,13.2981,4.59987,2469.563,2021-4-27T13:16:03Z
2021-04-27T11:17:56Z,42.805,6.029,13.2984,4.59986,2469.55,2021-4-27T13:19:06Z
2021-04-27T11:20:59Z,42.805,6.029,13.2980,4.59986,2469.517,2021-4-27T13:22:09Z
2021-04-27T11:24:03Z,42.805,6.029,13.2983,4.59986,2469.526,2021-4-27T13:25:12Z
2021-04-27T11:27:06Z,42.805,6.029,13.2979,4.59986,2469.54,2021-4-27T13:28:15Z
2021-04-27T11:30:09Z,42.805,6.029,13.2979,4.59986,2469.48,2021-4-27T13:31:18Z
2021-04-27T11:33:12Z,42.805,6.029,13.2981,4.59985,2469.526,2021-4-27T13:34:22Z
2021-04-27T11:36:15Z,42.805,6.029,13.2979,4.59984,2469.48,2021-4-27T13:37:25Z
2021-04-27T11:39:18Z,42.805,6.029,13.2978,4.59986,2469.54,2021-4-27T13:40:28Z
2021-04-27T11:42:21Z,42.805,6.029,13.2982,4.59986,2469.503,2021-4-27T13:43:31Z
2021-04-27T11:45:25Z,42.805,6.029,13.2981,4.59986,2469.503,2021-4-27T13:46:34Z
2021-04-27T11:48:28Z,42.805,6.029,13.2980,4.59984,2469.517,2021-4-27T13:49:37Z
2021-04-27T11:51:31Z,42.805,6.029,13.2978,4.59986,2469.517,2021-4-27T13:52:40Z
2021-04-27T11:54:34Z,42.805,6.029,13.2983,4.59986,2469.54,2021-4-27T13:55:43Z
2021-04-27T11:57:37Z,42.805,6.029,13.2982,4.59985,2469.503,2021-4-27T13:58:47Z
2021-04-27T12:00:40Z,42.805,6.029,13.2982,4.59986,2469.503,2021-4-27T14:01:50Z
2021-04-27T12:03:43Z,42.805,6.029,13.2979,4.59985,2469.503,2021-4-27T14:04:53Z
2021-04-27T12:06:46Z,42.805,6.029,13.2983,4.59986,2469.503,2021-4-27T14:07:56Z
2021-04-27T12:09:50Z,42.805,6.029,13.2981,4.59986,2469.517,2021-4-27T14:10:59Z
2021-04-27T12:12:53Z,42.805,6.029,13.2977,4.59983,2469.48,2021-4-27T14:14:02Z
2021-04-27T12:15:56Z,42.805,6.029,13.2983,4.59986,2469.517,2021-4-27T14:17:05Z
2021-04-27T12:18:59Z,42.805,6.029,13.2979,4.59986,2469.517,2021-4-27T14:20:08Z
2021-04-27T12:22:02Z,42.805,6.029,13.2982,4.59985,2469.517,2021-4-27T14:23:12Z
2021-04-27T12:25:05Z,42.805,6.029,13.2982,4.59985,2469.456,2021-4-27T14:26:15Z
2021-04-27T12:28:08Z,42.805,6.029,13.2979,4.59985,2469.494,2021-4-27T14:29:18Z
2021-04-27T12:31:11Z,42.805,6.029,13.2979,4.59985,2469.48,2021-4-27T14:32:21Z
2021-04-27T12:34:15Z,42.805,6.029,13.2983,4.59986,2469.503,2021-4-27T14:35:24Z
2021-04-27T12:37:18Z,42.805,6.029,13.2979,4.59986,2469.466,2021-4-27T14:38:27Z
2021-04-27T12:40:21Z,42.805,6.029,13.2986,4.59987,2469.494,2021-4-27T14:41:30Z
2021-04-27T12:43:24Z,42.805,6.029,13.2978,4.59984,2469.48,2021-4-27T14:44:34Z
2021-04-27T12:46:27Z,42.805,6.029,13.2979,4.59986,2469.48,2021-4-27T14:47:37Z
2021-04-27T12:49:30Z,42.805,6.029,13.2982,4.59986,2469.494,2021-4-27T14:50:40Z
2021-04-27T12:52:33Z,42.805,6.029,13.2978,4.59985,2469.48,2021-4-27T14:53:43Z
2021-04-27T12:55:36Z,42.805,6.029,13.2979,4.59985,2469.47,2021-4-27T14:56:46Z
2021-04-27T12:58:40Z,42.805,6.029,13.2981,4.59988,2469.517,2021-4-27T14:59:49Z
2021-04-27T13:01:43Z,42.805,6.029,13.2979,4.59986,2469.494,2021-4-27T15:02:52Z
2021-04-27T13:04:46Z,42.805,6.029,13.2981,4.59986,2469.489,2021-4-27T15:05:55Z
2021-04-27T13:07:49Z,42.805,6.029,13.2979,4.59986,2469.47,2021-4-27T15:08:59Z
2021-04-27T13:10:52Z,42.805,6.029,13.2979,4.59985,2469.456,2021-4-27T15:12:02Z
2021-04-27T13:13:55Z,42.805,6.029,13.2978,4.59985,2469.47,2021-4-27T15:15:05Z
2021-04-27T13:16:58Z,42.805,6.029,13.2982,4.59986,2469.48,2021-4-27T15:18:08Z
2021-04-27T13:20:01Z,42.805,6.029,13.2982,4.59986,2469.48,2021-4-27T15:21:11Z
2021-04-27T13:23:05Z,42.805,6.029,13.2980,4.59985,2469.48,2021-4-27T15:24:14Z
2021-04-27T13:26:08Z,42.805,6.029,13.2980,4.59986,2469.47,2021-4-27T15:27:17Z
2021-04-27T13:29:11Z,42.805,6.029,13.2979,4.59986,2469.456,2021-4-27T15:30:20Z
2021-04-27T13:32:14Z,42.805,6.029,13.2977,4.59986,2469.47,2021-4-27T15:33:24Z
2021-04-27T13:35:17Z,42.805,6.029,13.2980,4.59986,2469.517,2021-4-27T15:36:27Z
2021-04-27T13:38:20Z,42.805,6.029,13.2979,4.59985,2469.456,2021-4-27T15:39:30Z
2021-04-27T13:41:23Z,42.805,6.029,13.2981,4.59985,2469.47,2021-4-27T15:42:33Z
2021-04-27T13:44:27Z,42.805,6.029,13.2981,4.59986,2469.433,2021-4-27T15:45:36Z
2021-04-27T13:47:30Z,42.805,6.029,13.2982,4.59985,2469.447,2021-4-27T15:48:39Z
2021-04-27T13:50:33Z,42.805,6.029,13.2986,4.59985,2469.456,2021-4-27T15:51:42Z
2021-04-27T13:53:36Z,42.805,6.029,13.2981,4.59985,2469.433,2021-4-27T15:54:46Z
2021-04-27T13:56:39Z,42.805,6.029,13.2981,4.59985,2469.433,2021-4-27T15:57:49Z
2021-04-27T13:59:42Z,42.805,6.029,13.2978,4.59986,2469.47,2021-4-27T16:00:52Z
2021-04-27T14:02:45Z,42.805,6.029,13.2982,4.59985,2469.456,2021-4-27T16:03:55Z
2021-04-27T14:05:48Z,42.805,6.029,13.2979,4.59984,2469.494,2021-4-27T16:06:58Z
2021-04-27T14:08:52Z,42.805,6.029,13.2981,4.59984,2469.47,2021-4-27T16:10:01Z
2021-04-27T14:11:55Z,42.805,6.029,13.2979,4.59986,2469.456,2021-4-27T16:13:04Z
2021-04-27T14:14:58Z,42.805,6.029,13.2976,4.59985,2469.48,2021-4-27T16:16:07Z
2021-04-27T14:18:01Z,42.805,6.029,13.2982,4.59984,2469.456,2021-4-27T16:19:11Z
2021-04-27T14:21:04Z,42.805,6.029,13.2975,4.59985,2469.456,2021-4-27T16:22:14Z
2021-04-27T14:24:07Z,42.805,6.029,13.2979,4.59985,2469.456,2021-4-27T16:25:17Z
2021-04-27T14:27:10Z,42.805,6.029,13.2979,4.59985,2469.47,2021-4-27T16:28:20Z
2021-04-27T14:30:13Z,42.805,6.029,13.2983,4.59986,2469.433,2021-4-27T16:31:23Z
2021-04-27T14:33:17Z,42.805,6.029,13.2982,4.59986,2469.456,2021-4-27T16:34:26Z
2021-04-27T14:36:20Z,42.805,6.029,13.2981,4.59984,2469.47,2021-4-27T16:37:29Z
2021-04-27T14:39:23Z,42.805,6.029,13.2982,4.59986,2469.494,2021-4-27T16:40:32Z
2021-04-27T14:42:26Z,42.805,6.029,13.2981,4.59984,2469.47,2021-4-27T16:43:36Z
2021-04-27T14:45:29Z,42.805,6.029,13.2978,4.59985,2469.503,2021-4-27T16:46:39Z
2021-04-27T14:48:32Z,42.805,6.029,13.2978,4.59984,2469.503,2021-4-27T16:49:42Z
2021-04-27T14:51:35Z,42.805,6.029,13.2980,4.59986,2469.503,2021-4-27T16:52:45Z
2021-04-27T14:54:38Z,42.805,6.029,13.2982,4.59985,2469.494,2021-4-27T16:55:48Z
2021-04-27T14:57:42Z,42.805,6.029,13.2982,4.59985,2469.456,2021-4-27T16:58:51Z
2021-04-27T15:00:45Z,42.805,6.029,13.2980,4.59984,2469.48,2021-4-27T17:01:54Z
2021-04-27T15:03:48Z,42.805,6.029,13.2982,4.59985,2469.494,2021-4-27T17:04:57Z
2021-04-27T15:06:51Z,42.805,6.029,13.2986,4.59986,2469.456,2021-4-27T17:08:01Z
2021-04-27T15:09:54Z,42.805,6.029,13.2985,4.59986,2469.48,2021-4-27T17:11:04Z
2021-04-27T15:12:57Z,42.805,6.029,13.2979,4.59987,2469.456,2021-4-27T17:14:07Z